Weather in Santiago de los Caballeros

Dominican Republic     19°27′20″N   70°41′48″W
temp.,
°C
wind,
m/s
gust,
m/s
humid.,
%
clouds,
%
prec.,
mm/h
press.,
hPa
HPBL,
m
8 december, wed
wed823:00+19ese48951 0.0 1018186
02:00+19ese36963 0.0 1017120
05:00+19ese48963 0.0 1016168
08:00+21ese378963 0.0 1018205
11:00+27ese675930 0.1 10191222
14:00+29ese77481 0.1 10151527
17:00+29se66390 0.0 10141515
20:00+20e22780 0.0 101722
9 december, thu
thu923:00+19ese33900 0.0 101951
02:00+18ese35940 0.0 101881
05:00+18ese34940 0.0 101771
08:00+19ese24880 0.0 1019113
11:00+28ese455323 0.0 10191358
14:00+28e445283 0.1 10161564
17:00+26ene456310 0.1 1016993
20:00+20ene22921 0.1 101823
10 december, fri
fri1023:00+19e22953 0.0 101933
02:00+20ese229191 0.0 101845
05:00+20e229135 0.0 101726
08:00+21ese238619 0.1 101894
11:00+28e455530 0.1 10181423
14:00+29e664692 0.2 10151995
17:00+27e565239 0.0 10141159
20:00+20e22841 0.0 101731
11 december, sat
sat1123:00+20e33941 0.0 101860
02:00+20ese2389100 0.0 101693
05:00+21ese358414 0.1 1015171
08:00+21e368584 0.1 1017212
11:00+27ese575422 0.1 10171484
14:00+31ese684255 0.1 10132207
17:00+27ese67538 0.0 10131458
20:00+21ese47890 0.0 1016151
12 december, sun
sun1223:00+21ese378793 0.0 1016250
02:00+22ese388296 0.0 1015303
05:00+21ese368715 0.0 1015192
08:00+22ese36807 0.1 1017256
11:00+28ese575434 0.1 10171485
14:00+30ese66421 0.1 10142039
17:00+28e66472 0.0 10141686
20:00+20e22910 0.0 101741